San Jose, Costa Rica

8:33 PM CST on February 11, 2016 (GMT -0600)
Juan Santamaria International

Weather History for MROC - December, 2013

Change the Weather History Date:

Friday, December 6, 2013

  Actual Average Record
Temperature  
Mean Temperature 75 °F -  
Max Temperature 85 °F 79 °F 85 °F (2013)
Min Temperature 65 °F 64 °F 62 °F (2007)
Cooling Degree Days 10    
Growing Degree Days 25 (Base 50)    
Moisture  
Dew Point 64 °F    
Average Humidity 74    
Maximum Humidity 100    
Minimum Humidity 32    
Precipitation  
Precipitation 0.00 in 0.04 in - ()
Sea Level Pressure  
Sea Level Pressure 29.96 in    
Wind  
Wind Speed 7 mph ()    
Max Wind Speed 25 mph    
Max Gust Speed 23 mph    
Visibility 7.1 miles    
Events Fog    
Averages and records for this station are not official NWS values.
T = Trace of Precipitation, MM = Missing Value Source: Averaged Metar Reports

Daily Weather History Graph

Daily Weather History Graph

Search for Another Location

Airport or City:

Trip Planner

Search our weather history database for the weather conditions in past years. The results will help you decide how hot, cold, wet, or windy it might be!

Date:

Astronomy

Dec. 06, 2013 Rise Set
Actual Time 5:41 AM CST 5:15 PM CST
Civil Twilight 5:18 AM CST 5:37 PM CST
Nautical Twilight 4:52 AM CST 6:03 PM CST
Astronomical Twilight 4:26 AM CST 6:30 PM CST
Moon 9:09 AM CST (12/6) 9:16 PM CST (12/6)
Length of Visible Light 12h 19m
Length of Day
11h 33m
Waxing Crescent, 19% of the Moon is Illuminated
Dec 6
Waxing Crescent
Dec 9
First Quarter
Dec 17
Full
Dec 25
Last Quarter
Jan 1
New

Hourly Weather History & Observations

Time (CST) Temp. Heat Index Dew Point Humidity Pressure Visibility Wind Dir Wind Speed Gust Speed Precip Events Conditions
12:00 AM 67 °F - 66 °F 94% 29.84 in 12 mi WNW 2.3 mph - -   Scattered Clouds
12:00 AM 68.0 °F - 66.2 °F 94% 30.00 in 6.2 mi WNW 2.3 mph - N/A   Partly Cloudy
1:00 AM 66.2 °F - 62.6 °F 88% 29.99 in - NNE 4.6 mph - N/A   Clear
2:00 AM 66.2 °F - 62.6 °F 88% 29.96 in - NE 5.8 mph - N/A   Clear
3:00 AM 71 °F - 60 °F 61% 29.80 in 12 mi East 9.2 mph - -   Scattered Clouds
3:00 AM 71.6 °F - 60.8 °F 69% 29.94 in 6.2 mi East 9.2 mph - N/A   Partly Cloudy
4:00 AM 69.8 °F - 60.8 °F 73% 29.95 in 6.2 mi ESE 11.5 mph 23.0 mph N/A   Partly Cloudy
5:00 AM 69.8 °F - 60.8 °F 73% 29.97 in 6.2 mi ESE 10.4 mph - N/A   Scattered Clouds
6:00 AM 70 °F - 60 °F 62% 29.88 in 12 mi ESE 9.2 mph - -   Scattered Clouds
6:00 AM 69.8 °F - 60.8 °F 73% 29.99 in 6.2 mi ESE 9.2 mph - N/A   Scattered Clouds
7:00 AM 73.4 °F - 60.8 °F 65% 30.00 in 6.2 mi ESE 11.5 mph - N/A   Scattered Clouds
8:00 AM 77.0 °F - 60.8 °F 57% 30.02 in 6.2 mi ESE 10.4 mph - N/A   Partly Cloudy
9:00 AM 79 °F - 60 °F 42% 29.87 in 12 mi ESE 23.0 mph - -   Scattered Clouds
9:00 AM 78.8 °F - 60.8 °F 54% 30.02 in 6.2 mi ESE 11.5 mph 23.0 mph N/A   Partly Cloudy
10:00 AM 82.4 °F 82.5 °F 59.0 °F 45% 30.01 in 6.2 mi ESE 11.5 mph - N/A   Partly Cloudy
11:00 AM 82.4 °F 82.5 °F 59.0 °F 45% 30.00 in 6.2 mi East 12.7 mph - N/A   Scattered Clouds
12:00 PM 84 °F - 59 °F 32% 29.83 in 12 mi East 12.7 mph - -   Scattered Clouds
12:00 PM 84.2 °F 83.8 °F 59.0 °F 42% 29.98 in 6.2 mi East 12.7 mph - N/A   Scattered Clouds
1:00 PM 82.4 °F 82.5 °F 59.0 °F 45% 29.97 in 6.2 mi East 10.4 mph - N/A   Scattered Clouds
2:00 PM 84.2 °F 83.8 °F 59.0 °F 42% 29.95 in 6.2 mi East 6.9 mph - N/A   Scattered Clouds
3:00 PM 76 °F - 71 °F 79% 29.81 in 12 mi SW 9.2 mph - -   Partly Cloudy
3:00 PM 75.2 °F - 69.8 °F 83% 29.95 in 6.2 mi SW 9.2 mph - N/A   Mostly Cloudy
4:00 PM 77.0 °F - 69.8 °F 78% 29.95 in 6.2 mi SW 8.1 mph - N/A   Mostly Cloudy
5:00 PM 71.6 °F - 71.6 °F 100% 29.97 in 6.2 mi WSW 9.2 mph - N/A   Mostly Cloudy
6:00 PM 70 °F - 70 °F 99% 29.88 in 6 mi West 5.8 mph - -   Partly Cloudy
6:00 PM 69.8 °F - 69.8 °F 100% 30.00 in 6.2 mi West 5.8 mph - N/A   Mostly Cloudy
7:00 PM 69.8 °F - 69.8 °F 100% 30.03 in 6.2 mi West 4.6 mph - N/A Fog Mostly Cloudy
8:00 PM 69.8 °F - 69.8 °F 100% 30.04 in 4.3 mi SW 3.5 mph - N/A   Mostly Cloudy
9:00 PM 69 °F - 69 °F 99% 29.90 in 5 mi WSW 2.3 mph - -   Partly Cloudy
9:00 PM 69.8 °F - 68.0 °F 94% 30.04 in 5.0 mi WSW 25.3 mph - N/A Fog Fog
10:00 PM 68.0 °F - 68.0 °F 100% 30.04 in 3.1 mi WSW 3.5 mph - N/A   Scattered Clouds
11:00 PM 68.0 °F - 66.2 °F 94% 30.03 in 6.2 mi North 2.3 mph - N/A   Partly Cloudy